| time (UTC) | temp C | wind direction | speed KPH | gust KPH | rain 1hr cm | rain 24hr cm | rain mn cm | humidity % | barometer mb |
| 20260507194611 | 20 | 257 | 4.8 | 22.5 | 0.00 | 0.00 | 0.00 | 30 | 1014.5 |
| 20260507193043 | 20 | 281 | 11.3 | 22.5 | 0.00 | 0.00 | 0.00 | 33 | 1014.5 |
| 20260507191537 | 20 | 248 | 14.5 | 19.3 | 0.00 | 0.00 | 0.00 | 34 | 1014.5 |
| 20260507190036 | 19 | 258 | 14.5 | 24.1 | 0.00 | 0.00 | 0.00 | 36 | 1014.7 |
| 20260507184537 | 19 | 134 | 11.3 | 20.9 | 0.00 | 0.00 | 0.00 | 38 | 1014.8 |
| 20260507183042 | 19 | 263 | 14.5 | 24.1 | 0.00 | 0.00 | 0.00 | 39 | 1015.0 |
| 20260507181531 | 18 | 281 | 4.8 | 19.3 | 0.00 | 0.00 | 0.00 | 39 | 1015.0 |
| 20260507180034 | 18 | 259 | 12.9 | 20.9 | 0.00 | 0.00 | 0.00 | 44 | 1015.0 |
| 20260507174530 | 18 | 228 | 12.9 | 20.9 | 0.00 | 0.00 | 0.00 | 41 | 1015.1 |
| 20260507173038 | 17 | 253 | 4.8 | 19.3 | 0.00 | 0.00 | 0.00 | 42 | 1015.1 |
| 20260507171539 | 18 | 91 | 3.2 | 8.0 | 0.00 | 0.00 | 0.00 | 55 | 1015.0 |
| 20260507170022 | 17 | 83 | 3.2 | 8.0 | 0.00 | 0.00 | 0.00 | 53 | 1015.1 |
| 20260507164522 | 16 | 116 | 3.2 | 9.7 | 0.00 | 0.00 | 0.00 | 57 | 1015.1 |
| 20260507163019 | 16 | 68 | 1.6 | 11.3 | 0.00 | 0.00 | 0.00 | 57 | 1015.3 |
| 20260507161519 | 15 | 9 | 4.8 | 14.5 | 0.00 | 0.00 | 0.00 | 56 | 1015.4 |
| 20260507160016 | 16 | 131 | 0.0 | 3.2 | 0.00 | 0.00 | 0.00 | 55 | 1015.3 |
| 20260507154512 | 16 | 138 | 0.0 | 4.8 | 0.00 | 0.00 | 0.00 | 56 | 1015.2 |
| 20260507153009 | 15 | 154 | 0.0 | 3.2 | 0.00 | 0.00 | 0.00 | 57 | 1015.3 |
| 20260507151508 | 13 | 154 | 1.6 | 6.4 | 0.00 | 0.00 | 0.00 | 62 | 1015.4 |
| 20260507150007 | 12 | 135 | 1.6 | 4.8 | 0.00 | 0.00 | 0.00 | 71 | 1015.6 |
| 20260507144505 | 11 | 109 | 1.6 | 4.8 | 0.00 | 0.00 | 0.00 | 73 | 1015.5 |
| 20260507143010 | 10 | 238 | 1.6 | 3.2 | 0.00 | 0.00 | 0.00 | 74 | 1015.4 |
| 20260507141503 | 8 | 238 | 0.0 | 4.8 | 0.00 | 0.00 | 0.00 | 79 | 1015.5 |
| 20260507140001 | 7 | 289 | 3.2 | 9.7 | 0.00 | 0.00 | 0.00 | 79 | 1015.3 |
| 20260507134603 | 7 | 143 | 0.0 | 3.2 | 0.00 | 0.00 | 0.00 | 79 | 1015.0 |
| 20260507133101 | 8 | 143 | 1.6 | 6.4 | 0.00 | 0.00 | 0.00 | 76 | 1014.7 |
| 20260507131553 | 8 | 154 | 1.6 | 9.7 | 0.00 | 0.00 | 0.00 | 75 | 1014.7 |
| 20260507130052 | 8 | 112 | 3.2 | 9.7 | 0.00 | 0.00 | 0.00 | 75 | 1014.6 |
| 20260507124549 | 8 | 64 | 1.6 | 6.4 | 0.00 | 0.00 | 0.00 | 74 | 1014.7 |
| 20260507123048 | 10 | 76 | 0.0 | 8.0 | 0.00 | 0.00 | 0.00 | 68 | 1014.6 |
| 20260507121545 | 11 | 31 | 6.4 | 11.3 | 0.00 | 0.00 | 0.00 | 66 | 1014.5 |
| 20260507120050 | 11 | 75 | 6.4 | 14.5 | 0.00 | 0.00 | 0.00 | 66 | 1014.5 |
| 20260507114542 | 11 | 65 | 6.4 | 12.9 | 0.00 | 0.00 | 0.00 | 63 | 1014.5 |
| 20260507113045 | 11 | 58 | 6.4 | 11.3 | 0.00 | 0.00 | 0.00 | 63 | 1014.5 |
| 20260507111537 | 11 | 29 | 3.2 | 14.5 | 0.00 | 0.00 | 0.00 | 61 | 1014.5 |
| 20260507110037 | 12 | 48 | 9.7 | 14.5 | 0.00 | 0.00 | 0.00 | 58 | 1014.4 |
| 20260507104534 | 12 | 91 | 6.4 | 12.9 | 0.00 | 0.00 | 0.00 | 57 | 1014.4 |
| 20260507103033 | 12 | 53 | 4.8 | 11.3 | 0.00 | 0.00 | 0.00 | 58 | 1014.5 |
| 20260507101532 | 11 | 96 | 3.2 | 4.8 | 0.00 | 0.00 | 0.00 | 61 | 1014.6 |
| 20260507100036 | 12 | 103 | 0.0 | 4.8 | 0.00 | 0.00 | 0.00 | 57 | 1014.5 |
| 20260507094528 | 11 | 105 | 8.0 | 9.7 | 0.00 | 0.00 | 0.00 | 64 | 1014.5 |
| 20260507093027 | 12 | 37 | 1.6 | 9.7 | 0.00 | 0.00 | 0.00 | 59 | 1014.5 |
| 20260507091526 | 12 | 147 | 4.8 | 11.3 | 0.00 | 0.00 | 0.00 | 59 | 1014.5 |
| 20260507090024 | 11 | 198 | 6.4 | 11.3 | 0.00 | 0.00 | 0.00 | 61 | 1014.4 |
| 20260507084520 | 11 | 173 | 3.2 | 6.4 | 0.00 | 0.00 | 0.00 | 61 | 1014.3 |
| 20260507083019 | 12 | 110 | 1.6 | 6.4 | 0.00 | 0.00 | 0.00 | 57 | 1014.3 |
| 20260507081518 | 12 | 143 | 0.0 | 4.8 | 0.00 | 0.00 | 0.00 | 58 | 1014.4 |
| 20260507080016 | 13 | 131 | 6.4 | 12.9 | 0.00 | 0.00 | 0.00 | 55 | 1014.1 |
| 20260507074525 | 12 | 137 | 3.2 | 8.0 | 0.00 | 0.00 | 0.00 | 60 | 1014.0 |
| 20260507073011 | 12 | 142 | 1.6 | 6.4 | 0.00 | 0.00 | 0.00 | 59 | 1014.1 |
| 20260507071507 | 13 | 124 | 6.4 | 9.7 | 0.00 | 0.00 | 0.00 | 56 | 1013.9 |
| 20260507070003 | 15 | 146 | 4.8 | 12.9 | 0.00 | 0.00 | 0.00 | 53 | 1014.0 |
| 20260507064502 | 13 | 141 | 8.0 | 11.3 | 0.00 | 0.00 | 0.00 | 55 | 1014.0 |
| 20260507063002 | 13 | 105 | 4.8 | 8.0 | 0.00 | 0.00 | 0.00 | 57 | 1013.9 |
| 20260507061502 | 15 | 132 | 8.0 | 11.3 | 0.00 | 0.00 | 0.00 | 50 | 1013.8 |
| 20260507060002 | 16 | 200 | 6.4 | 11.3 | 0.00 | 0.00 | 0.00 | 47 | 1013.7 |
| 20260507054601 | 16 | 175 | 4.8 | 8.0 | 0.00 | 0.00 | 0.00 | 46 | 1013.7 |
| 20260507053100 | 17 | 137 | 4.8 | 6.4 | 0.00 | 0.00 | 0.00 | 45 | 1013.7 |
| 20260507051559 | 17 | 211 | 8.0 | 19.3 | 0.00 | 0.00 | 0.00 | 42 | 1013.7 |
| 20260507050100 | 18 | 209 | 12.9 | 22.5 | 0.00 | 0.00 | 0.00 | 41 | 1013.6 |
| 20260507044601 | 18 | 195 | 14.5 | 30.6 | 0.00 | 0.00 | 0.00 | 40 | 1013.7 |
| 20260507043058 | 18 | 160 | 6.4 | 11.3 | 0.00 | 0.00 | 0.00 | 42 | 1013.7 |
| 20260507041601 | 18 | 129 | 3.2 | 11.3 | 0.00 | 0.00 | 0.00 | 42 | 1013.6 |
| 20260507040106 | 20 | 230 | 14.5 | 20.9 | 0.00 | 0.00 | 0.00 | 37 | 1013.3 |
| 20260507034618 | 20 | 161 | 9.7 | 20.9 | 0.00 | 0.00 | 0.00 | 37 | 1013.1 |
| 20260507033105 | 21 | 221 | 12.9 | 22.5 | 0.00 | 0.00 | 0.00 | 36 | 1013.1 |
| 20260507031554 | 21 | 242 | 9.7 | 17.7 | 0.00 | 0.00 | 0.00 | 37 | 1012.8 |
| 20260507030053 | 21 | 245 | 11.3 | 30.6 | 0.00 | 0.00 | 0.00 | 36 | 1012.6 |
| 20260507024558 | 21 | 217 | 9.7 | 16.1 | 0.00 | 0.00 | 0.00 | 36 | 1012.5 |
| 20260507023051 | 21 | 241 | 9.7 | 17.7 | 0.00 | 0.00 | 0.00 | 36 | 1012.4 |
| 20260507021558 | 21 | 193 | 6.4 | 14.5 | 0.00 | 0.00 | 0.00 | 36 | 1012.4 |
| 20260507020050 | 22 | 243 | 6.4 | 19.3 | 0.00 | 0.00 | 0.00 | 36 | 1012.1 |
| 20260507014552 | 22 | 226 | 9.7 | 22.5 | 0.00 | 0.00 | 0.00 | 36 | 1011.9 |
| 20260507013027 | 23 | 225 | 12.9 | 29.0 | 0.00 | 0.00 | 0.00 | 35 | 1011.9 |
| 20260507011527 | 23 | 253 | 16.1 | 25.7 | 0.00 | 0.00 | 0.00 | 36 | 1011.8 |
| 20260507010033 | 23 | 233 | 19.3 | 27.4 | 0.00 | 0.00 | 0.00 | 35 | 1011.7 |
| 20260507004526 | 24 | 243 | 20.9 | 32.2 | 0.00 | 0.00 | 0.00 | 34 | 1011.5 |
| 20260507003024 | 25 | 235 | 22.5 | 35.4 | 0.00 | 0.00 | 0.00 | 33 | 1011.4 |
| 20260507001529 | 25 | 252 | 27.4 | 37.0 | 0.00 | 0.00 | 0.00 | 29 | 1011.3 |
| 20260507000028 | 25 | 244 | 24.1 | 38.6 | 0.00 | 0.00 | 0.00 | 31 | 1011.3 |
| 20260506234542 | 25 | 250 | 17.7 | 35.4 | 0.00 | 0.00 | 0.00 | 34 | 1011.2 |
| 20260506233022 | 25 | 249 | 19.3 | 33.8 | 0.00 | 0.00 | 0.00 | 32 | 1011.2 |
| 20260506231521 | 25 | 241 | 22.5 | 32.2 | 0.00 | 0.00 | 0.00 | 32 | 1011.1 |
| 20260506230020 | 26 | 271 | 22.5 | 40.2 | 0.00 | 0.00 | 0.00 | 31 | 1011.2 |
| 20260506224526 | 26 | 272 | 24.1 | 33.8 | 0.00 | 0.00 | 0.00 | 30 | 1011.3 |
| 20260506223018 | 26 | 261 | 22.5 | 32.2 | 0.00 | 0.00 | 0.00 | 30 | 1011.3 |
| 20260506221515 | 26 | 279 | 22.5 | 33.8 | 0.00 | 0.00 | 0.00 | 33 | 1011.4 |
| 20260506220029 | 26 | 276 | 24.1 | 33.8 | 0.00 | 0.00 | 0.00 | 36 | 1011.8 |
| 20260506214513 | 26 | 281 | 22.5 | 37.0 | 0.00 | 0.00 | 0.00 | 39 | 1011.8 |
| 20260506213012 | 25 | 276 | 24.1 | 35.4 | 0.00 | 0.00 | 0.00 | 40 | 1011.9 |
| 20260506211518 | 26 | 271 | 25.7 | 40.2 | 0.00 | 0.00 | 0.00 | 34 | 1011.6 |
| 20260506210011 | 27 | 266 | 22.5 | 41.8 | 0.00 | 0.00 | 0.00 | 31 | 1011.8 |
| 20260506204509 | 26 | 245 | 22.5 | 32.2 | 0.00 | 0.00 | 0.00 | 30 | 1011.5 |
| 20260506203006 | 26 | 202 | 19.3 | 33.8 | 0.00 | 0.00 | 0.00 | 34 | 1011.7 |
| 20260506201505 | 26 | 213 | 19.3 | 32.2 | 0.00 | 0.00 | 0.00 | 35 | 1011.7 |
| 20260506200004 | 26 | 244 | 19.3 | 32.2 | 0.00 | 0.00 | 0.00 | 40 | 1011.9 |